Home   Weather   Debrecen   Past weeks

Flag for Hungary Past Weather in Debrecen, Hungary — Yesterday and Last 2 Weeks

Now
59 °F

Light rain. Mostly cloudy.


Feels Like: 59 °F
Forecast: 47 / 55 °F
Wind: 5 mph from Northeast

Location: Debrecen Airport

Current Time: Apr 28, 2017 at 2:33:39 am

Latest Report: Apr 27, 2017 at 11:45 pm


Visibility: N/A

Pressure: 29.89 "Hg

Humidity: 88%

Dew Point: 55 °F

Location of DebrecenLocation

Past Weather in Debrecen — Graph

°F

Debrecen Temperature Yesterday

Maximum temperature yesterday: 73 °F (at 1:15 pm)
Minimum temperature yesterday: 54 °F (at 5:15 am)
Average temperature yesterday: 64 °F

High & Low Weather Summary for the Past Weeks

 TemperatureHumidityPressure
High73 °F (Apr 27, 1:15 pm)100% (Apr 14, 6:15 am)30.27 "Hg (Apr 14, 6:15 am)
Low30 °F (Apr 24, 5:15 am)27% (Apr 16, 5:15 pm)29.77 "Hg (Apr 13, 4:45 pm)
Average50 °F61%29.98 "Hg
* Reported Apr 12 11:15 pm — Apr 27 11:45 pm, Debrecen, Weather by CustomWeather, © 2017

Note: Actual official high and low records may vary slightly from our data, if they occured in-between our weather recording intervals... More about our weather records

Advertising

Debrecen Weather History for the Previous 24 Hours

Scroll right to see more
 ConditionsComfort  
Time TempWeatherWind HumidityBarometerVisibility
11:45 pm
Thu, Apr 27
59 °FLight rain. Mostly cloudy.5 mph88%29.89 "HgN/A
11:15 pm59 °FLight rain. Mostly cloudy.3 mph82%29.89 "HgN/A
10:45 pm61 °FLight rain. Partly cloudy.3 mph77%29.89 "HgN/A
10:15 pm63 °FLight rain. Partly cloudy.5 mph64%29.89 "HgN/A
9:45 pm61 °FPartly cloudy.3 mph68%29.86 "HgN/A
9:15 pm61 °FPartly cloudy.5 mph68%29.86 "HgN/A
8:45 pm61 °FPartly cloudy.5 mph72%29.86 "HgN/A
8:15 pm63 °FPartly cloudy.5 mph68%29.86 "HgN/A
7:45 pm64 °FLight rain. Partly cloudy.1 mph64%29.86 "HgN/A
7:15 pm66 °FLight rain. Broken clouds.2 mph56%29.86 "HgN/A
6:45 pm66 °FSunny.3 mph56%29.86 "Hg10 mi
6:15 pm68 °FSunny.5 mph56%29.86 "Hg10 mi
5:45 pm66 °FSunny.6 mph56%29.89 "Hg10 mi
4:45 pm68 °FLight rain. More clouds than sun.8 mph49%29.89 "HgN/A
4:15 pm68 °FLight rain. More clouds than sun.13 mph46%29.89 "HgN/A
3:45 pm72 °FSunny.13 mph41%29.86 "Hg10 mi
3:15 pm73 °FSunny.10 mph38%29.86 "Hg10 mi
2:45 pm73 °FSunny.12 mph38%29.86 "Hg10 mi
2:15 pm72 °FSunny.14 mph38%29.86 "Hg10 mi
1:45 pm72 °FSunny.12 mph36%29.89 "Hg10 mi
1:15 pm73 °FSunny.15 mph36%29.89 "Hg10 mi
12:45 pm72 °FSunny.17 mph36%29.89 "Hg10 mi
12:15 pm72 °FSunny.15 mph38%29.89 "Hg10 mi
11:45 am70 °FSunny.14 mph38%29.89 "Hg10 mi
11:15 am68 °FSunny.15 mph40%29.89 "Hg10 mi
10:45 am66 °FSunny.13 mph43%29.89 "Hg10 mi
10:15 am66 °FSunny.16 mph43%29.89 "Hg10 mi
9:45 am66 °FSunny.16 mph43%29.89 "Hg10 mi
9:15 am64 °FSunny.17 mph46%29.86 "Hg10 mi
8:45 am61 °FSunny.14 mph55%29.86 "Hg10 mi
8:15 am61 °FSunny.14 mph52%29.86 "Hg10 mi
7:45 am59 °FSunny.12 mph55%29.86 "Hg10 mi
7:15 am57 °FSunny.8 mph59%29.89 "Hg10 mi
6:45 am55 °FSunny.7 mph67%29.86 "Hg10 mi
6:21 am55 °FCool.9 mph63%29.86 "HgN/A
5:45 am55 °FSunny.7 mph63%29.86 "Hg10 mi
5:15 am54 °FClear.8 mph67%29.86 "Hg10 mi
4:45 am55 °FClear.8 mph63%29.86 "Hg10 mi
Weather by CustomWeather, © 2017

See weather overviewHow to use our weather pages